This is the latest recevied weather packets stored in our database for station/object W7TTE. If no packets are shown the sender has not sent any weather packets the latest 1 day(s).
| Time | Temp. | Humidity | Pressure | Rain* | Wind** | Luminosity | Snow |
|---|---|---|---|---|---|---|---|
| 1836274707 | 32.78° C | 41% | 1013.1 hPa | 0 mm | 0.89 m/s, 149° | 0 W/m² | - |
| 1836274560 | 32.78° C | 41% | 1013.4 hPa | 0 mm | 0.45 m/s, 179° | 0 W/m² | - |
| 1836274406 | 32.78° C | 41% | 1012.8 hPa | 0 mm | 0.89 m/s, 164° | 0 W/m² | - |
| 1836274259 | 32.78° C | 41% | 1013.3 hPa | 0 mm | 0.45 m/s, 197° | 0 W/m² | - |
| 1836274103 | 32.78° C | 41% | 1012.9 hPa | 0 mm | 0 m/s | 0 W/m² | - |
| 1778053488 | 16.67° C | 41% | 1015.8 hPa | 0 mm | 0 m/s | 0 W/m² | - |
| 1778053185 | 17.22° C | 41% | 1015.9 hPa | 0 mm | 0 m/s | 0 W/m² | - |
| 1778052883 | 16.67° C | 41% | 1015.7 hPa | 0 mm | 0 m/s | 0 W/m² | - |
| 1778052580 | 16.67° C | 41% | 1015.8 hPa | 0 mm | 0 m/s | 0 W/m² | - |
| 1778052277 | 17.22° C | 41% | 1016 hPa | 0 mm | 0 m/s | 0 W/m² | - |
| 1778051975 | 17.22° C | 41% | 1015.7 hPa | 0 mm | 0 m/s | 0 W/m² | - |
| 1778051673 | 17.22° C | 40% | 1015.7 hPa | 0 mm | 0 m/s | 0 W/m² | - |
| 1778051370 | 17.22° C | 42% | 1015.7 hPa | 0 mm | 0 m/s | 0 W/m² | - |
| 1778051066 | 17.22° C | 39% | 1015.8 hPa | 0 mm | 0 m/s | 0 W/m² | - |
| 1778050764 | 16.67° C | 40% | 1015.5 hPa | 0 mm | 0 m/s | 0 W/m² | - |
| 1778050461 | 16.67° C | 41% | 1015.7 hPa | 0 mm | 0 m/s | 0 W/m² | - |
| 1778050158 | 16.67° C | 41% | 1015.6 hPa | 0 mm | 0 m/s | 0 W/m² | - |
| 1778049854 | 17.22° C | 40% | 1015.6 hPa | 0 mm | 0 m/s | 0 W/m² | - |
| 1778049551 | 17.78° C | 38% | 1015.3 hPa | 0 mm | 0 m/s | 0 W/m² | - |
| 1778049248 | 17.78° C | 38% | 1015.4 hPa | 0 mm | 0 m/s | 0 W/m² | - |
| 1778048946 | 17.78° C | 38% | 1015.4 hPa | 0 mm | 0 m/s | 0 W/m² | - |
| 1778048644 | 17.78° C | 38% | 1015.6 hPa | 0 mm | 0 m/s | 0 W/m² | - |
| 1778048340 | 17.78° C | 37% | 1015.4 hPa | 0 mm | 0 m/s | 0 W/m² | - |
| 1778048037 | 17.78° C | 37% | 1015.3 hPa | 0 mm | 0.45 m/s, 164° | 0 W/m² | - |
| 1778047735 | 17.78° C | 38% | 1015.4 hPa | 0 mm | 0 m/s | 0 W/m² | - |
* Rain latest hour (hover to see other rain measurements)
** Current wind speed in m/s (hover to see current wind gust speed)